RFF9986 UUMU-OSLK

Flight info

Callsign RFF9986
Flight time N/A
Altitude 35000
Route K0850F350 DCT TOGMO M56 ABAGI B105 NIMTA B105 WGD G481 ELI A964 STW ADNET N166 TUDEK R114 TBN W88 EZS W701 GAZ B36 TUSYR B544 ALE W6 BAN DCT
Aircraft T154/M-VGD/A

Departure

Time 2026-04-18 07:00
Airport Chkalovskiy Air Base (UUMU)

Arrival

Time N/A
Airport Latakia International Airport (OSLK)
Time Latitude Longitude Altitude Speed Heading
2026-04-18 06:31 55.89118 38.05028 509 ft 0 kts 310°
2026-04-18 06:54 55.89126 38.05011 509 ft 1 kts 310°
2026-04-18 06:55 55.89144 38.04973 509 ft 6 kts 309°
2026-04-18 06:55 55.89140 38.04886 509 ft 8 kts 223°
2026-04-18 06:55 55.89092 38.04814 509 ft 11 kts 220°
2026-04-18 06:55 55.89032 38.04722 509 ft 15 kts 220°
2026-04-18 06:56 55.88948 38.04596 509 ft 13 kts 219°
2026-04-18 06:56 55.88918 38.04472 509 ft 11 kts 295°
2026-04-18 06:56 55.88963 38.04375 509 ft 10 kts 309°
2026-04-18 06:56 55.88966 38.04280 509 ft 9 kts 219°
2026-04-18 06:57 55.88904 38.04249 509 ft 9 kts 190°
2026-04-18 06:57 55.88787 38.04210 509 ft 5 kts 191°
2026-04-18 06:57 55.88750 38.04198 509 ft 5 kts 191°
2026-04-18 06:58 55.88708 38.04185 509 ft 6 kts 184°
2026-04-18 06:58 55.88673 38.04202 509 ft 5 kts 147°
2026-04-18 06:58 55.88644 38.04253 509 ft 4 kts 130°
2026-04-18 06:58 55.88643 38.04256 509 ft 0 kts 130°
2026-04-18 06:59 55.88612 38.04320 509 ft 31 kts 131°
2026-04-18 06:59 55.88307 38.04953 509 ft 101 kts 131°
2026-04-18 07:00 55.87709 38.06204 510 ft 159 kts 131°
2026-04-18 07:00 55.86932 38.07794 839 ft 174 kts 132°
2026-04-18 07:00 55.86154 38.09416 1376 ft 175 kts 130°
2026-04-18 07:00 55.85385 38.11062 1841 ft 179 kts 131°
2026-04-18 07:01 55.84539 38.12842 2135 ft 195 kts 128°
2026-04-18 07:01 55.84042 38.15228 2376 ft 222 kts 92°
2026-04-18 07:01 55.84319 38.18055 2578 ft 242 kts 69°
2026-04-18 07:01 55.84849 38.20852 3285 ft 239 kts 76°
2026-04-18 07:02 55.85187 38.23780 3843 ft 241 kts 83°
2026-04-18 07:02 55.85268 38.26759 4389 ft 242 kts 90°
2026-04-18 07:02 55.85287 38.29734 4912 ft 243 kts 87°
2026-04-18 07:02 55.85415 38.32772 5431 ft 245 kts 84°
2026-04-18 07:03 55.85591 38.35764 5934 ft 247 kts 84°
2026-04-18 07:03 55.85744 38.38826 6446 ft 249 kts 85°